カタログに戻る

FENGYUN 1C DEB

運用中SSO
NORAD 31226·DEBRIS·🇨🇳 China

打ち上げ May 10, 1999 から Taiyuan Satellite Launch Center

Loading…

次のパス (今後24時間)

TLE

最新Source: Space-Track

元期: Sep 14, 2026, 05:10 UTC

1 31226U 99025BLG 26257.21543224  .00000391  00000-0  16250-3 0  9994
2 31226  98.3654 249.8296 0128181 104.9859 256.5552 14.27084669659825

AllMySatでFENGYUN 1C DEBをリアルタイム追跡

Download on the App Store